Weather in Nabatieh

Lebanon     33°23′28″N   35°28′22″E
temp.,
°C
wind,
m/s
gust,
m/s
humid.,
%
clouds,
%
prec.,
mm/h
press.,
hPa
HPBL,
m
8 december, wed
wed823:00+13sse44420 0.0 101334
02:00+12sse345797 0.0 101359
05:00+11s477269 0.2 1013187
08:00+12s710623 0.3 1014952
11:00+13ssw11146169 0.4 10141726
14:00+12ssw12156755 2.1 10131607
17:00+9sw91594100 8.9 10141229
20:00+10wsw7119385 15.1 1016896
9 december, thu
thu923:00+11w71182100 3.4 1017695
02:00+10wnw478992 8.2 1019384
05:00+12wnw247990 2.4 1019179
08:00+13w458087 3.9 1022533
11:00+13w237987 1.1 1023601
14:00+12w238192 2.0 1023534
17:00+12se118482 0.6 102345
20:00+11se228310 0.9 102519
10 december, fri
fri1023:00+10e22800 0.0 102518
02:00+10ene32750 0.0 102517
05:00+10e33719 0.0 102519
08:00+12e3365100 0.0 102557
11:00+16nnw0149100 0.0 1023529
14:00+16nw2154100 0.0 1022310
17:00+13ene1166100 0.0 102119
20:00+13e3357100 0.0 102132
11 december, sat
sat1123:00+12e5458100 0.0 102045
02:00+12e435522 0.0 102032
05:00+12e43523 0.0 101921
08:00+14e44500 0.0 102058
11:00+19ese23340 0.0 1019498
14:00+19sw12380 0.0 1019576
17:00+15ese22480 0.0 101914
20:00+15e33450 0.0 102021
12 december, sun
sun1223:00+14e43410 0.0 102020
02:00+14e43400 0.0 102020
05:00+14e43380 0.0 102020
08:00+16e43370 0.0 102036
11:00+22ese13260 0.0 1020488
14:00+22sw22301 0.0 1018511
17:00+17ese224553 0.0 101911
20:00+16e433761 0.0 102021